Main page
METAR-TAF:

METAR-TAF

Airports :

RAF Holbeach

Holbeach, England

latitude: 52-52N, longitude: 000-09E, elevation: 3 m

Current weather observation

The report was made 43 minutes ago, at 12:50 UTC
Wind 12 kt from the South/Southwest
Temperature 14°C
Humidity 82%
Pressure 1020 hPa
Visibility 10 km or more
Broken clouds at a height of 2000 ft

METAR: EGYH 151250Z 20012KT 9999 BKN020 14/11 Q1020 WHT

Time: 13:33 (13:33 UTC)


TAF: missing

Weather observations and forecasts of more than 4000 airports (METAR and TAF reports).

The available stations are represented by yellow and red dots on the map.

Hover mouse over dot to see the name of the station.

Then click to see weather observations and forecasts.

To change the map : click on the green buttons with a black cross to zoom in, on the green button with a dash to zoom out, or on the green arrows for adjacent maps.


METAR-TAF: